TimeCST,TemperatureF,Dew PointF,Humidity,Sea Level PressureIn,VisibilityMPH,Wind Direction,Wind SpeedMPH,Gust SpeedMPH,PrecipitationIn,Events,Conditions,WindDirDegrees,DateUTC
12:58 AM,40.6,38.8,93,30.16,9.0,NE,1.2,-,N/A,,Clear,50,2013-12-20 06:58:00
1:58 AM,39.9,38.1,93,30.15,10.0,NNW,4.6,-,N/A,,Clear,340,2013-12-20 07:58:00
2:58 AM,43.3,39.6,87,30.15,10.0,NNE,4.6,-,N/A,,Overcast,30,2013-12-20 08:58:00
3:58 AM,45.1,40.1,82,30.16,10.0,North,4.6,-,N/A,,Overcast,350,2013-12-20 09:58:00
4:58 AM,46.8,41.0,80,30.16,10.0,NE,3.5,-,N/A,,Overcast,40,2013-12-20 10:58:00
5:58 AM,47.8,41.0,77,30.17,10.0,North,3.5,-,N/A,,Overcast,360,2013-12-20 11:58:00
6:05 AM,48.2,41.0,76,30.16,10.0,NE,3.5,-,N/A,Rain,Light Rain,40,2013-12-20 12:05:00
6:16 AM,48.2,41.0,76,30.16,10.0,NNE,3.5,-,N/A,,Overcast,30,2013-12-20 12:16:00
6:19 AM,48.2,41.0,76,30.16,10.0,NE,3.5,-,N/A,,Light Drizzle,40,2013-12-20 12:19:00
6:57 AM,46.4,41.0,81,30.17,10.0,NE,4.6,-,N/A,,Mostly Cloudy,40,2013-12-20 12:57:00
6:58 AM,46.8,41.2,81,30.18,10.0,NE,4.6,-,0.00,,Mostly Cloudy,40,2013-12-20 12:58:00
7:18 AM,46.4,41.0,81,30.17,10.0,ENE,4.6,-,N/A,Rain,Light Rain,60,2013-12-20 13:18:00
7:38 AM,46.4,42.8,87,30.17,10.0,NE,4.6,-,N/A,,Mostly Cloudy,40,2013-12-20 13:38:00
7:58 AM,47.1,42.6,84,30.18,10.0,NNE,3.5,-,0.01,,Overcast,30,2013-12-20 13:58:00
8:58 AM,48.9,44.2,84,30.20,10.0,NNE,4.6,-,N/A,,Overcast,30,2013-12-20 14:58:00
9:58 AM,50.9,46.2,84,30.19,10.0,NE,4.6,-,N/A,,Overcast,50,2013-12-20 15:58:00
10:58 AM,54.9,49.1,81,30.17,10.0,NNE,3.5,-,N/A,,Overcast,30,2013-12-20 16:58:00
11:58 AM,63.9,52.9,67,30.13,10.0,Variable,4.6,-,N/A,,Partly Cloudy,0,2013-12-20 17:58:00
12:28 PM,68.0,53.6,60,30.11,10.0,SSE,9.2,-,N/A,,Mostly Cloudy,150,2013-12-20 18:28:00
12:33 PM,68.0,53.6,60,30.11,10.0,SSE,10.4,-,N/A,,Mostly Cloudy,160,2013-12-20 18:33:00
12:43 PM,68.0,55.4,64,30.11,10.0,SSE,10.4,-,N/A,,Mostly Cloudy,160,2013-12-20 18:43:00
12:58 PM,69.8,55.4,60,30.11,10.0,SSE,9.2,-,N/A,,Overcast,160,2013-12-20 18:58:00
1:28 PM,69.8,57.2,64,30.10,10.0,SSE,8.1,-,N/A,,Overcast,160,2013-12-20 19:28:00
1:53 PM,69.8,57.2,64,30.09,10.0,SSE,9.2,-,N/A,,Scattered Clouds,150,2013-12-20 19:53:00
1:58 PM,70.2,57.4,64,30.09,10.0,SSE,8.1,-,N/A,,Scattered Clouds,160,2013-12-20 19:58:00
2:58 PM,69.3,58.1,68,30.09,10.0,SE,10.4,-,N/A,,Overcast,140,2013-12-20 20:58:00
3:58 PM,68.9,59.0,71,30.09,10.0,SSE,10.4,-,N/A,,Overcast,160,2013-12-20 21:58:00
4:58 PM,66.6,58.8,76,30.10,10.0,SSE,4.6,-,N/A,,Overcast,160,2013-12-20 22:58:00
5:58 PM,64.8,59.0,82,30.09,10.0,East,8.1,-,N/A,,Overcast,100,2013-12-20 23:58:00
6:58 PM,64.6,59.2,83,30.10,10.0,ESE,5.8,-,N/A,,Overcast,120,2013-12-21 00:58:00
7:58 PM,63.7,59.4,86,30.10,10.0,ESE,5.8,-,N/A,,Overcast,120,2013-12-21 01:58:00
8:58 PM,63.3,59.5,87,30.09,10.0,ESE,3.5,-,N/A,,Overcast,110,2013-12-21 02:58:00
9:58 PM,61.5,59.0,91,30.08,10.0,ENE,1.2,-,N/A,,Overcast,70,2013-12-21 03:58:00
10:58 PM,57.0,56.1,97,30.08,10.0,NE,5.8,-,N/A,,Clear,40,2013-12-21 04:58:00
11:58 PM,58.1,57.7,99,30.06,10.0,NE,4.6,-,N/A,,Mostly Cloudy,40,2013-12-21 05:58:00